Regional Weather Roundup
Issued by NWS

Home | Current Version | Previous Version | Text Only | Print | Product List | Glossary Off
Versions: 1 2 3 4 5 6 7 8 9 10 11 12 13 14 15 16 17 18 19 20 21 22 23 24 25 26 27

000
ASUS45 KBOU 021007
RWRCO

WEATHER ROUNDUP FOR COLORADO
NATIONAL WEATHER SERVICE DENVER/BOULDER CO
300 AM MST FRI DEC 02 2016

NOTE: "FAIR" INDICATES FEW OR NO CLOUDS BELOW 12000 FEET WITH NO
SIGNIFICANT WEATHER AND/OR OBSTRUCTIONS TO VISIBILITY.

COZ001>005-013-030-031-021100-
...NORTHWEST COLORADO...

CITY           SKY/WX    TMP DP  RH WIND       PRES   REMARKS
CRAIG          CLOUDY    18  15  88 CALM      30.09S
HAYDEN         CLOUDY    19  14  79 CALM      30.06F
MEEKER         CLOUDY    18  16  92 CALM      30.06S
MOUNT WERNER   NOT AVBL
STEAMBOAT SPGS CLOUDY    17  14  90 CALM      30.06S
WALDEN           N/A     10   5  79 CALM      30.03R
$$

COZ006>008-011-021100-
...WEST CENTRAL VALLEYS...

CITY           SKY/WX    TMP DP  RH WIND       PRES   REMARKS
GRAND JUNCTION CLOUDY    29  24  82 CALM      30.05S
MONTROSE       MOCLDY    24  16  71 CALM      30.05F
EAGLE          FLURRIES  21  18  88 CALM      30.07S
RIFLE          CLOUDY    26  19  74 CALM      30.06F
DELTA          CLOUDY    28  19  70 CALM      30.05F
NUCLA          FAIR      25  16  68 CALM      30.04F
$$

COZ017>023-064>068-021100-
...SOUTHWEST COLORADO...

CITY           SKY/WX    TMP DP  RH WIND       PRES   REMARKS
DURANGO        FAIR      18  13  80 CALM      29.96F
CORTEZ         FAIR      17  13  84 CALM      29.98F
PAGOSA SPRINGS FAIR      13  12  95 CALM      29.97F
TELLURIDE      FAIR      14  12  91 SE5       29.95F WCI   7
WOLF CREEK PAS CLOUDY     9   7  92 SE5       29.97S WCI   0
$$

COZ009-010-012-014-032>034-037-058>063-021100-
...CENTRAL COLORADO...

CITY           SKY/WX    TMP DP  RH WIND       PRES   REMARKS
ASPEN          CLOUDY    15  11  83 CALM      29.99F
BUENA VISTA    NOT AVBL
COPPER MTN     CLOUDY    14   7  73 MISG      29.93S
BERTHOUD PASS  CLOUDY     3  -8  60 SE6       29.92R WCI  -8
COTTONWOOD PAS MOCLDY    19  10  68 CALM      29.96F
GUNNISON       CLOUDY    12   8  84 CALM      30.02F
KREMMLING      FLURRIES  19  16  86 CALM      30.06S
LEADVILLE      CLOUDY     8   3  80 E3        29.95S
MONARCH PASS   MOCLDY    10   5  79 S9        30.03F WCI  -2
SALIDA         MOCLDY    16   6  64 CALM      30.10S
SUNLIGHT       CLOUDY   N/A N/A N/A CALM      29.99F
WILKERSON PASS CLOUDY    10   5  79 SW6       29.97F WCI   1
$$

COZ069>075-021100-
...SAN LUIS VALLEY/SANGRE DE CRISTO MOUNTAINS...

CITY           SKY/WX    TMP DP  RH WIND       PRES   REMARKS
ALAMOSA        FAIR       3  -1  83 CALM      30.01S
LA VETA PASS   FAIR      16  10  79 N8        29.97S WCI   5
SAGUACHE       FAIR      14   9  79 N10       30.01F WCI   1
$$

COZ035-036-038>040-021100-
...NORTHERN COLORADO FRONT RANGE...

CITY           SKY/WX    TMP DP  RH WIND       PRES   REMARKS
DENVER INTL AP MOCLDY    22  11  62 S9        30.07R WCI  12
DMNS CITY PARK   N/A     24  10  53 MISG      30.07S
AURORA         MOCLDY    23  11  62 E7        30.07R WCI  14
FRONT RANGE AP CLOUDY    27  16  63 SE5       30.08R WCI  21
ERIE MUNI ARPT FAIR      19  11  73 CALM      30.09R
BOULDER MUN AP FAIR      28  10  47 SW5       30.09R WCI  23
CENTENNIAL     MOCLDY    25   9  50 W7        30.05S WCI  17
BROOMFIELD     FAIR      27  10  50 NW8       30.07R WCI  18
FORT COLLINS   FAIR      18  10  73 SE6       30.09S WCI   9
LONGMONT       FAIR      27  10  49 NW3       30.11S
$$

COZ041-046-047-076>085-087-088-021100-
...PIKES PEAK/PALMER DIVIDE AND SOUTHERN FOOTHILLS...

CITY           SKY/WX    TMP DP  RH WIND       PRES   REMARKS
COLO. SPRINGS  MOCLDY    19   4  51 N7        30.06R WCI  10
A. F. ACADEMY  CLOUDY    12   4  70 N9        30.04R WCI   0
SCHRIEVER AFB  NOT AVBL
ELLICOTT       FAIR     N/A N/A N/A E10         N/A
FALCON         CLOUDY    17   8  66 CALM      30.05R
FORT CARSON    FAIR      20   6  55 NW8       30.04S WCI  10
LIMON          FAIR       6   3  87 N3        30.09R
MONUMENT HILL  MOCLDY    12   3  67 SW3       30.05R
TRINIDAD       FAIR      18   6  59 NW8       30.04R WCI   8
$$

COZ042>045-048>051-090-091-021100-
...NORTHEAST COLORADO...

CITY           SKY/WX    TMP DP  RH WIND       PRES   REMARKS
GREELEY ARPT   FAIR      19  12  74 CALM      30.11R
AKRON          MOCLDY    25  16  68 NW8       30.09R WCI  16
BURLINGTON     FAIR      16   6  65 W10       30.10R WCI   4
WRAY           NOT AVBL
STERLING       CLOUDY    18  14  86 CALM      30.10S
HOLYOKE        FAIR      21  16  79 W8        30.11S WCI  12
FORT MORGAN    FAIR      24  14  65 W3        30.10S
$$

COZ086-089-092>099-021100-
...SOUTHEAST COLORADO...

CITY           SKY/WX    TMP DP  RH WIND       PRES   REMARKS
PUEBLO         FAIR      17   8  67 SW5       30.07S WCI  10
LA JUNTA       FAIR      21  11  65 CALM      30.08S
LAMAR          FAIR      10   4  76 CALM      30.09S
SPRINGFIELD      N/A     13   6  74 CALM      30.07R
$$




USA.gov is the U.S. government's official web portal to all federal, state and local government web resources and services.